Regional Weather Roundup
Issued by NWS Binghamton, NY

Home | Current Version | Previous Version | Text Only | Print | Product List | Glossary On
Versions: 1 2 3 4 5 6 7 8 9 10 11 12 13 14 15 16 17 18 19 20 21 22 23 24 25 26 27 28 29 30 31 32 33 34 35 36 37 38 39 40 41 42 43 44 45 46 47 48 49 50
000
ASUS41 KBGM 251410
RWRBGM
RWRBGM
BINGHAMTON REGIONAL WEATHER ROUNDUP
NATIONAL WEATHER SERVICE BINGHAMTON NY
1000 AM EDT SAT APR 25 2015

Note: "fair" indicates few or no clouds below 12,000 feet with no
significant weather and/or obstructions to visibility.

* = Station(s) that does not report precipitation, such as rain,
snow, etc, also no thunder or fog.

!NYZ009-015>018-022>025-036-037-044>046-055>057-062-251500
...CENTRAL NEW YORK...

CITY           SKY/WX    TMP DP  RH WIND       PRES   REMARKS
BINGHAMTON     SUNNY     35  22  58 NW9       29.87F WCI  28
CORTLAND       PTSUNNY   36  28  75 W8        29.92S WCI  29
DANSVILLE      SUNNY     41  23  48 NW7       29.95F
ELMIRA         SUNNY     42  23  46 VRB7      29.92F
ITHACA         MOSUNNY   37  24  60 NW10      29.92F WCI  30
MONTICELLO     SUNNY     37  23  56 NW13G18   29.86F WCI  29
PENN YAN       SUNNY     39  24  55 NW9       29.93F WCI  33
ROME           MOSUNNY   39  25  57 W12       29.91F WCI  32
SYRACUSE       MOSUNNY   40  26  57 NW6       29.92F
$$

!PAZ038>040-043-044-047-048-072-251500
...NORTHEAST PENNSYLVANIA...

CITY           SKY/WX    TMP DP  RH WIND       PRES   REMARKS
HAZLETON       PTSUNNY   37  23  56 NW7       29.91F WCI  32
SCRANTON       SUNNY     42  22  44 W15G22    29.91S
TOWANDA*       SUNNY     41  21  45 MISG      29.94F
$$
&&
KEY
WCI = WIND CHILL INDEX
VSB = VISIBILITY
HX  = HEAT INDEX
$$


USA.gov is the U.S. government's official web portal to all federal, state and local government web resources and services.